TimeCDT,TemperatureF,Dew PointF,Humidity,Sea Level PressureIn,VisibilityMPH,Wind Direction,Wind SpeedMPH,Gust SpeedMPH,PrecipitationIn,Events,Conditions,WindDirDegrees,DateUTC
12:55 AM,39.2,30.2,70,30.16,10.0,SSW,5.8,-,N/A,,Clear,200,2012-10-11 05:55:00
1:55 AM,41.0,30.0,65,30.18,10.0,SSW,6.9,-,N/A,,Clear,210,2012-10-11 06:55:00
2:55 AM,42.1,30.0,62,30.17,10.0,SSW,6.9,-,N/A,,Clear,210,2012-10-11 07:55:00
3:55 AM,39.9,30.0,68,30.17,10.0,SSW,5.8,-,N/A,,Clear,210,2012-10-11 08:55:00
4:55 AM,39.0,30.0,70,30.17,10.0,SSW,4.6,-,N/A,,Clear,200,2012-10-11 09:55:00
5:55 AM,37.9,30.0,73,30.16,10.0,SSW,6.9,-,N/A,,Clear,200,2012-10-11 10:55:00
6:55 AM,39.9,30.9,70,30.15,10.0,SSW,6.9,-,N/A,,Clear,200,2012-10-11 11:55:00
7:55 AM,39.9,32.0,73,30.17,10.0,SSW,6.9,-,N/A,,Clear,200,2012-10-11 12:55:00
8:55 AM,46.9,34.0,61,30.17,10.0,SSW,11.5,-,N/A,,Clear,200,2012-10-11 13:55:00
9:55 AM,53.1,36.0,52,30.17,10.0,SSW,12.7,-,N/A,,Clear,200,2012-10-11 14:55:00
10:55 AM,59.0,37.9,46,30.17,10.0,SSW,9.2,-,N/A,,Clear,200,2012-10-11 15:55:00
11:55 AM,63.0,39.9,43,30.15,10.0,SSW,11.5,18.4,N/A,,Clear,200,2012-10-11 16:55:00
12:55 PM,66.9,41.0,39,30.14,10.0,South,10.4,17.3,N/A,,Clear,190,2012-10-11 17:55:00
1:55 PM,69.1,45.0,42,30.10,10.0,South,9.2,-,N/A,,Clear,190,2012-10-11 18:55:00
2:55 PM,69.1,46.9,45,30.09,10.0,SSW,11.5,17.3,N/A,,Clear,210,2012-10-11 19:55:00
3:55 PM,68.0,48.0,49,30.09,10.0,SW,4.6,-,N/A,,Clear,230,2012-10-11 20:55:00
4:55 PM,66.2,48.2,52,30.08,10.0,SSW,5.8,-,N/A,,Scattered Clouds,200,2012-10-11 21:55:00
5:55 PM,64.0,48.9,58,30.10,10.0,SSW,3.5,-,N/A,,Overcast,200,2012-10-11 22:55:00
6:55 PM,61.0,48.9,64,30.12,10.0,South,6.9,-,N/A,,Mostly Cloudy,190,2012-10-11 23:55:00
7:55 PM,57.2,46.4,67,30.14,10.0,SSW,5.8,-,N/A,,Scattered Clouds,210,2012-10-12 00:55:00
8:55 PM,57.9,48.0,70,30.20,10.0,NW,8.1,-,N/A,,Overcast,320,2012-10-12 01:55:00
9:55 PM,53.1,36.0,52,30.24,10.0,North,10.4,-,N/A,,Mostly Cloudy,10,2012-10-12 02:55:00
10:55 PM,52.0,35.1,53,30.26,10.0,North,11.5,-,N/A,,Overcast,10,2012-10-12 03:55:00
11:55 PM,50.0,30.9,48,30.25,10.0,NNE,17.3,-,N/A,,Mostly Cloudy,20,2012-10-12 04:55:00